EW7058 Weather Reports


Display with metric or nautical units.
time (UTC)temp
F
wind
direction
speed
MPH
gust
MPH
rain 1hr
in
rain 24hr
in
rain mn
in
humidity
%
barometer
mb
20260504181334 76 254 1.0 7.0 0.00 0.00 0.00 40 1014.7
20260504180837 77 200 1.0 11.0 0.00 0.00 0.00 44 1014.8
20260504180337 77 177 10.0 13.0 0.00 0.00 0.00 43 1014.8
20260504175837 77 213 4.0 16.0 0.00 0.00 0.00 46 1014.8
20260504175337 77 216 3.0 9.0 0.00 0.00 0.00 43 1014.8
20260504174837 77 236 2.0 11.0 0.00 0.00 0.00 42 1014.9
20260504174334 77 190 3.0 12.0 0.00 0.00 0.00 44 1015.0
20260504173834 76 178 2.0 4.0 0.00 0.00 0.00 47 1014.9
20260504173337 76 203 3.0 15.0 0.00 0.00 0.00 43 1015.0
20260504172837 76 248 8.0 10.0 0.00 0.00 0.00 44 1014.8
20260504172334 75 178 5.0 13.0 0.00 0.00 0.00 47 1014.9
20260504171834 75 184 6.0 12.0 0.00 0.00 0.00 44 1015.1
20260504171334 75 216 5.0 9.0 0.00 0.00 0.00 46 1015.2
20260504170837 75 177 7.0 8.0 0.00 0.00 0.00 43 1015.3
20260504170337 75 242 3.0 10.0 0.00 0.00 0.00 44 1015.4
20260504160337 72 259 4.0 12.0 0.00 0.00 0.00 46 1016.4
20260504150834 68 285 4.0 11.0 0.00 0.00 0.00 50 1016.8
20260504150337 68 183 10.0 11.0 0.00 0.00 0.00 49 1016.8
20260504140837 64 238 3.0 6.0 0.00 0.00 0.00 69 1016.6
20260504140334 63 159 4.0 5.0 0.00 0.00 0.00 71 1016.6
20260504130334 56 159 2.0 5.0 0.00 0.00 0.00 79 1016.6
20260504110334 40 194 0.0 1.0 0.00 0.00 0.00 90 1016.6
20260504100337 41 194 0.0 0.0 0.00 0.00 0.00 89 1016.8
20260504081837 42 194 0.0 0.0 0.00 0.00 0.00 88 1016.8
20260504081334 42 194 0.0 0.0 0.00 0.00 0.00 88 1016.7
20260504080834 42 194 0.0 0.0 0.00 0.00 0.00 88 1016.7
20260504080334 42 194 0.0 0.0 0.00 0.00 0.00 88 1016.8
20260504070337 43 194 0.0 0.0 0.00 0.00 0.00 88 1017.0
20260504050334 45 194 0.0 2.0 0.00 0.00 0.00 84 1017.4
20260504045834 46 194 0.0 0.0 0.00 0.00 0.00 84 1017.3
20260504045337 46 194 0.0 0.0 0.00 0.00 0.00 83 1017.2
20260504044834 46 194 0.0 0.0 0.00 0.00 0.00 83 1017.2
20260504044334 46 194 0.0 0.0 0.00 0.00 0.00 83 1017.2
20260504043834 46 194 0.0 0.0 0.00 0.00 0.00 83 1017.2
20260504043337 46 194 0.0 0.0 0.00 0.00 0.00 83 1017.1
20260504042837 46 194 0.0 0.0 0.00 0.00 0.00 83 1017.0
20260504042334 46 194 0.0 2.0 0.00 0.00 0.00 82 1017.0
20260504041834 46 194 0.0 2.0 0.00 0.00 0.00 82 1017.0
20260504041334 47 194 0.0 2.0 0.00 0.00 0.00 82 1017.0
20260504040834 47 194 0.0 0.0 0.00 0.00 0.00 81 1017.1
20260504040334 47 194 0.0 0.0 0.00 0.00 0.00 81 1017.2
20260504035834 47 194 0.0 0.0 0.00 0.00 0.00 82 1017.2
20260504035337 47 194 0.0 0.0 0.00 0.00 0.00 81 1017.2
20260504034834 47 194 0.0 0.0 0.00 0.00 0.00 80 1017.1
20260504034337 47 194 0.0 0.0 0.00 0.00 0.00 79 1017.1
20260504033837 47 194 0.0 0.0 0.00 0.00 0.00 78 1017.2
20260504033337 47 194 0.0 0.0 0.00 0.00 0.00 78 1017.3
20260504032834 48 194 0.0 0.0 0.00 0.00 0.00 76 1017.3
20260504032334 48 194 0.0 0.0 0.00 0.00 0.00 76 1017.3
20260504031837 48 194 0.0 0.0 0.00 0.00 0.00 76 1017.3
20260504031337 48 194 0.0 2.0 0.00 0.00 0.00 76 1017.3
20260504030837 48 194 1.0 1.0 0.00 0.00 0.00 75 1017.2
20260504030337 48 194 0.0 1.0 0.00 0.00 0.00 73 1017.4
20260504025837 49 194 0.0 2.0 0.00 0.00 0.00 73 1017.5
20260504025334 49 194 0.0 0.0 0.00 0.00 0.00 72 1017.4
20260504024834 49 194 0.0 0.0 0.00 0.00 0.00 71 1017.3
20260504024334 49 194 0.0 0.0 0.00 0.00 0.00 70 1017.4
20260504023837 50 194 0.0 0.0 0.00 0.00 0.00 69 1017.2
20260504023337 50 194 0.0 0.0 0.00 0.00 0.00 69 1017.2
20260504022837 50 194 0.0 0.0 0.00 0.00 0.00 68 1017.1
20260504022337 50 194 0.0 0.0 0.00 0.00 0.00 68 1017.1
20260504021834 51 194 0.0 0.0 0.00 0.00 0.00 67 1017.0
20260504021334 51 194 0.0 0.0 0.00 0.00 0.00 67 1016.9
20260504020837 51 194 0.0 0.0 0.00 0.00 0.00 67 1016.8
20260504020337 52 194 0.0 0.0 0.00 0.00 0.00 66 1016.8
20260504015834 52 194 0.0 0.0 0.00 0.00 0.00 66 1016.7
20260504015337 52 194 0.0 0.0 0.00 0.00 0.00 64 1016.6
20260504014837 53 194 0.0 0.0 0.00 0.00 0.00 64 1016.6
20260504014337 53 194 0.0 0.0 0.00 0.00 0.00 63 1016.6
20260504013834 53 194 0.0 0.0 0.00 0.00 0.00 63 1016.5
20260504013337 54 194 0.0 0.0 0.00 0.00 0.00 62 1016.4
20260504012834 54 194 0.0 0.0 0.00 0.00 0.00 61 1016.5
20260504012337 55 194 0.0 0.0 0.00 0.00 0.00 60 1016.5
20260504011834 55 194 0.0 0.0 0.00 0.00 0.00 58 1016.4
20260504011337 55 194 0.0 0.0 0.00 0.00 0.00 57 1016.3
20260504010834 56 194 0.0 0.0 0.00 0.00 0.00 56 1016.2
20260504010334 56 194 0.0 1.0 0.00 0.00 0.00 56 1016.2
20260504005837 57 194 0.0 1.0 0.00 0.00 0.00 55 1016.2
20260504005337 57 194 0.0 0.0 0.00 0.00 0.00 54 1016.2
20260504004834 58 194 0.0 1.0 0.00 0.00 0.00 53 1016.2
20260504004337 58 194 0.0 0.0 0.00 0.00 0.00 52 1016.1
20260504003834 58 194 0.0 0.0 0.00 0.00 0.00 52 1016.0
20260504003334 60 194 0.0 1.0 0.00 0.00 0.00 49 1016.0
20260504002834 61 194 0.0 2.0 0.00 0.00 0.00 47 1016.0
20260504002334 61 194 0.0 0.0 0.00 0.00 0.00 46 1015.9
20260504001834 62 194 0.0 1.0 0.00 0.00 0.00 45 1015.9
20260504001334 63 194 0.0 2.0 0.00 0.00 0.00 44 1015.8
20260504000834 63 194 1.0 3.0 0.00 0.00 0.00 42 1015.7
20260504000337 64 194 0.0 2.0 0.00 0.00 0.00 41 1015.7
20260503235837 64 194 1.0 1.0 0.00 0.00 0.00 40 1015.7
20260503235334 64 186 0.0 4.0 0.00 0.00 0.00 40 1015.8
20260503234837 65 186 0.0 3.0 0.00 0.00 0.00 39 1015.7
20260503234334 65 186 1.0 3.0 0.00 0.00 0.00 39 1015.7
20260503233834 65 186 2.0 4.0 0.00 0.00 0.00 37 1015.7
20260503233337 66 200 2.0 4.0 0.00 0.00 0.00 38 1015.7
20260503232837 66 202 1.0 3.0 0.00 0.00 0.00 38 1015.8
20260503232334 66 208 2.0 3.0 0.00 0.00 0.00 37 1015.8
20260503231837 66 208 1.0 3.0 0.00 0.00 0.00 36 1015.7
20260503231334 66 208 2.0 4.0 0.00 0.00 0.00 35 1015.7
20260503230837 66 207 3.0 6.0 0.00 0.00 0.00 36 1015.7
20260503230337 66 202 2.0 3.0 0.00 0.00 0.00 37 1015.7
20260503225837 66 203 1.0 11.0 0.00 0.00 0.00 37 1015.7
20260503225334 66 186 8.0 8.0 0.00 0.00 0.00 38 1015.8
20260503224837 66 202 3.0 7.0 0.00 0.00 0.00 35 1015.8
20260503224337 66 136 3.0 10.0 0.00 0.00 0.00 35 1015.9
20260503223834 67 181 4.0 10.0 0.00 0.00 0.00 35 1015.9
20260503223334 67 134 7.0 9.0 0.00 0.00 0.00 36 1015.9
20260503222837 67 196 1.0 7.0 0.00 0.00 0.00 35 1015.9
20260503222334 67 209 3.0 10.0 0.00 0.00 0.00 37 1015.9
20260503221834 67 221 4.0 8.0 0.00 0.00 0.00 36 1015.9
20260503221337 67 155 6.0 12.0 0.00 0.00 0.00 36 1015.9
20260503220834 67 192 4.0 9.0 0.00 0.00 0.00 37 1016.0
20260503220337 67 186 4.0 10.0 0.00 0.00 0.00 37 1016.1
20260503215834 67 193 8.0 15.0 0.00 0.00 0.00 37 1016.1
20260503215334 67 221 4.0 11.0 0.00 0.00 0.00 36 1016.2
20260503214834 67 199 6.0 8.0 0.00 0.00 0.00 36 1016.3
20260503214337 67 220 3.0 10.0 0.00 0.00 0.00 36 1016.4
20260503213834 68 240 9.0 12.0 0.00 0.00 0.00 35 1016.4
20260503213337 68 273 6.0 9.0 0.00 0.00 0.00 36 1016.4
20260503212837 68 204 2.0 13.0 0.00 0.00 0.00 36 1016.4
20260503212334 68 161 6.0 6.0 0.00 0.00 0.00 39 1016.4
20260503211837 68 261 3.0 9.0 0.00 0.00 0.00 36 1016.5
20260503211337 68 255 4.0 9.0 0.00 0.00 0.00 34 1016.5
20260503210834 68 271 8.0 10.0 0.00 0.00 0.00 34 1016.4
20260503210337 68 197 3.0 8.0 0.00 0.00 0.00 38 1016.4
20260503205837 68 231 5.0 10.0 0.00 0.00 0.00 36 1016.4
20260503205337 68 272 2.0 9.0 0.00 0.00 0.00 33 1016.4
20260503204834 68 261 2.0 10.0 0.00 0.00 0.00 35 1016.5
20260503204337 68 231 5.0 8.0 0.00 0.00 0.00 35 1016.5
20260503203834 68 186 4.0 6.0 0.00 0.00 0.00 41 1016.6
20260503203334 68 212 3.0 8.0 0.00 0.00 0.00 35 1016.6
20260503202834 68 271 4.0 10.0 0.00 0.00 0.00 34 1016.7
20260503202334 68 260 10.0 16.0 0.00 0.00 0.00 35 1016.7
20260503201837 68 236 2.0 8.0 0.00 0.00 0.00 37 1016.7
20260503201337 67 277 3.0 7.0 0.00 0.00 0.00 34 1016.9
20260503200834 67 284 2.0 7.0 0.00 0.00 0.00 36 1016.9
20260503200337 66 239 1.0 6.0 0.00 0.00 0.00 39 1017.0
20260503195834 66 228 1.0 6.0 0.00 0.00 0.00 37 1017.1
20260503195337 66 209 5.0 7.0 0.00 0.00 0.00 34 1017.2
20260503194834 66 178 4.0 8.0 0.00 0.00 0.00 35 1017.2
20260503194337 66 251 8.0 12.0 0.00 0.00 0.00 34 1017.3
20260503193834 66 164 5.0 8.0 0.00 0.00 0.00 39 1017.3
20260503193334 66 295 3.0 9.0 0.00 0.00 0.00 32 1017.3
20260503192834 66 272 7.0 11.0 0.00 0.00 0.00 33 1017.4
20260503192334 65 302 7.0 12.0 0.00 0.00 0.00 35 1017.4
20260503191834 65 339 4.0 9.0 0.00 0.00 0.00 38 1017.5
20260503191337 66 292 3.0 12.0 0.00 0.00 0.00 33 1017.6
20260503190837 65 220 2.0 9.0 0.00 0.00 0.00 37 1017.6
20260503190334 66 291 2.0 7.0 0.00 0.00 0.00 32 1017.8
20260503185834 65 320 4.0 12.0 0.00 0.00 0.00 34 1017.8
20260503185337 65 305 2.0 15.0 0.00 0.00 0.00 37 1017.9
20260503184837 64 331 8.0 12.0 0.00 0.00 0.00 37 1017.9
20260503184334 64 309 1.0 5.0 0.00 0.00 0.00 37 1018.0
20260503183837 65 208 0.0 4.0 0.00 0.00 0.00 34 1018.1
20260503183337 64 207 2.0 6.0 0.00 0.00 0.00 40 1018.1
20260503182837 65 244 4.0 11.0 0.00 0.00 0.00 35 1018.2
20260503182337 65 240 5.0 9.0 0.00 0.00 0.00 38 1018.3
20260503181834 64 205 4.0 8.0 0.00 0.00 0.00 38 1018.3